DW5941 Weather Reports


time (UTC)temp
C
wind
direction
speed
KPH
gust
KPH
rain 1hr
cm
rain 24hr
cm
rain mn
cm
humidity
%
barometer
mb
20260502180547 18 322 25.7 0.0 0.00 0.00 0.00 31 1014.8
20260502164037 17 348 22.5 0.0 0.00 0.00 0.00 32 1014.8
20260502163537 18 355 22.5 0.0 0.00 0.00 0.00 33 1014.8
20260502163043 18 348 22.5 0.0 0.00 0.00 0.00 33 1014.8
20260502162035 18 335 22.5 0.0 0.00 0.00 0.00 36 1014.7
20260502161535 17 313 20.9 0.0 0.00 0.00 0.00 35 1014.6
20260502161034 17 319 22.5 0.0 0.00 0.00 0.00 38 1014.7
20260502160537 17 323 24.1 0.0 0.00 0.00 0.00 37 1014.6
20260502152030 16 313 16.1 0.0 0.00 0.00 0.00 41 1014.6
20260502151528 15 332 16.1 0.0 0.00 0.00 0.00 41 1014.5
20260502151026 15 332 12.9 0.0 0.00 0.00 0.00 42 1014.4
20260502150526 15 297 12.9 0.0 0.00 0.00 0.00 42 1014.4
20260502130509 10 257 3.2 0.0 0.00 0.00 0.00 55 1014.3
20260502123508 8 302 3.2 0.0 0.00 0.00 0.00 55 1014.2
20260502123007 8 302 3.2 0.0 0.00 0.00 0.00 54 1014.2
20260502122008 8 274 6.4 0.0 0.00 0.00 0.00 53 1014.2
20260502121508 9 290 9.7 0.0 0.00 0.00 0.00 52 1014.0
20260502121008 9 322 12.9 0.0 0.00 0.00 0.00 51 1014.0
20260502120508 9 325 11.3 0.0 0.00 0.00 0.00 51 1014.0
20260502115505 8 313 6.4 0.0 0.00 0.00 0.00 51 1013.9
20260502115004 9 325 6.4 0.0 0.00 0.00 0.00 50 1013.9
20260502114504 9 292 6.4 0.0 0.00 0.00 0.00 49 1013.8
20260502114003 10 320 8.0 0.0 0.00 0.00 0.00 48 1013.7
20260502113505 10 311 9.7 0.0 0.00 0.00 0.00 46 1013.7
20260502113004 10 289 12.9 0.0 0.00 0.00 0.00 45 1013.5
20260502112002 11 276 14.5 0.0 0.00 0.00 0.00 44 1013.5
20260502111505 11 249 12.9 0.0 0.00 0.00 0.00 44 1013.5
20260502111002 11 259 14.5 0.0 0.00 0.00 0.00 43 1013.5
20260502110502 11 271 16.1 0.0 0.00 0.00 0.00 43 1013.5
20260502110004 11 239 19.3 0.0 0.00 0.00 0.00 43 1013.3
20260502105505 11 229 17.7 0.0 0.00 0.00 0.00 43 1013.3
20260502105002 11 243 17.7 0.0 0.00 0.00 0.00 44 1013.3
20260502104502 10 263 16.1 0.0 0.00 0.00 0.00 45 1013.4
20260502104001 10 238 16.1 0.0 0.00 0.00 0.00 46 1013.5
20260502103602 10 246 17.7 0.0 0.00 0.00 0.00 46 1013.6
20260502103101 10 235 14.5 0.0 0.00 0.00 0.00 46 1013.5
20260502102701 10 232 9.7 0.0 0.00 0.00 0.00 47 1013.7
20260502102059 9 259 8.0 0.0 0.00 0.00 0.00 46 1013.7
20260502101557 10 248 8.0 0.0 0.00 0.00 0.00 45 1013.9
20260502101056 10 280 9.7 0.0 0.00 0.00 0.00 44 1014.1
20260502100556 10 321 14.5 0.0 0.00 0.00 0.00 42 1014.0
20260502091050 11 186 11.3 0.0 0.00 0.00 0.00 39 1013.5
20260502090548 11 182 11.3 0.0 0.00 0.00 0.00 39 1013.5
20260502071036 10 190 14.5 0.0 0.00 0.00 0.00 37 1014.5
20260502070539 10 166 12.9 0.0 0.00 0.00 0.00 37 1014.5
20260502070037 10 186 14.5 0.0 0.00 0.00 0.00 36 1014.5
20260502065537 10 171 14.5 0.0 0.00 0.00 0.00 36 1014.5
20260502065034 10 161 16.1 0.0 0.00 0.00 0.00 36 1014.7
20260502064535 10 171 16.1 0.0 0.00 0.00 0.00 36 1014.7
20260502064034 10 182 16.1 0.0 0.00 0.00 0.00 36 1014.8
20260502063537 10 184 17.7 0.0 0.00 0.00 0.00 35 1014.8
20260502063033 10 173 16.1 0.0 0.00 0.00 0.00 35 1014.9
20260502062633 10 170 16.1 0.0 0.00 0.00 0.00 35 1014.9
20260502062032 10 173 14.5 0.0 0.00 0.00 0.00 36 1015.0
20260502061531 10 178 14.5 0.0 0.00 0.00 0.00 35 1015.0
20260502061030 10 190 14.5 0.0 0.00 0.00 0.00 35 1015.1
20260502060530 10 150 14.5 0.0 0.00 0.00 0.00 35 1015.2
20260502060030 10 173 11.3 0.0 0.00 0.00 0.00 36 1015.3
20260502055529 8 139 8.0 0.0 0.00 0.00 0.00 38 1015.3
20260502055033 8 135 8.0 0.0 0.00 0.00 0.00 38 1015.4
20260502054528 8 134 8.0 0.0 0.00 0.00 0.00 39 1015.5
20260502054028 8 132 8.0 0.0 0.00 0.00 0.00 39 1015.5
20260502053527 8 140 8.0 0.0 0.00 0.00 0.00 39 1015.6
20260502053027 8 136 8.0 0.0 0.00 0.00 0.00 39 1015.6
20260502052631 8 148 9.7 0.0 0.00 0.00 0.00 38 1015.7
20260502052027 8 153 9.7 0.0 0.00 0.00 0.00 38 1015.7
20260502051530 9 148 9.7 0.0 0.00 0.00 0.00 37 1015.8
20260502051026 8 157 8.0 0.0 0.00 0.00 0.00 39 1015.9
20260502050529 8 161 6.4 0.0 0.00 0.00 0.00 39 1016.0
20260502050035 8 177 6.4 0.0 0.00 0.00 0.00 39 1016.0
20260502045526 8 166 6.4 0.0 0.00 0.00 0.00 39 1016.0
20260502045031 8 182 6.4 0.0 0.00 0.00 0.00 41 1016.0
20260502044525 7 144 4.8 0.0 0.00 0.00 0.00 40 1016.1
20260502044026 7 142 6.4 0.0 0.00 0.00 0.00 41 1016.2
20260502043524 7 148 8.0 0.0 0.00 0.00 0.00 41 1016.2
20260502043024 7 153 8.0 0.0 0.00 0.00 0.00 42 1016.3
20260502042624 7 158 4.8 0.0 0.00 0.00 0.00 44 1016.4
20260502042024 7 166 3.2 0.0 0.00 0.00 0.00 44 1016.4
20260502041529 6 139 1.6 0.0 0.00 0.00 0.00 43 1016.4
20260502041021 6 138 3.2 0.0 0.00 0.00 0.00 43 1016.5
20260502040521 6 138 3.2 0.0 0.00 0.00 0.00 42 1016.5
20260502040020 7 138 4.8 0.0 0.00 0.00 0.00 42 1016.7
20260502035520 7 138 6.4 0.0 0.00 0.00 0.00 41 1016.7
20260502035020 7 148 8.0 0.0 0.00 0.00 0.00 41 1016.7
20260502034520 7 145 8.0 0.0 0.00 0.00 0.00 41 1016.8
20260502034019 7 135 8.0 0.0 0.00 0.00 0.00 41 1016.8
20260502033518 7 146 8.0 0.0 0.00 0.00 0.00 40 1016.8
20260502033022 7 136 8.0 0.0 0.00 0.00 0.00 41 1016.9
20260502032619 7 122 8.0 0.0 0.00 0.00 0.00 41 1016.9
20260502032019 7 122 6.4 0.0 0.00 0.00 0.00 41 1017.0
20260502031519 7 122 6.4 0.0 0.00 0.00 0.00 40 1017.0
20260502031019 7 122 6.4 0.0 0.00 0.00 0.00 40 1017.0
20260502030519 7 122 4.8 0.0 0.00 0.00 0.00 39 1017.0
20260502030019 7 122 4.8 0.0 0.00 0.00 0.00 39 1017.0
20260502025518 7 122 6.4 0.0 0.00 0.00 0.00 38 1017.1
20260502025019 8 122 4.8 0.0 0.00 0.00 0.00 37 1017.0
20260502024519 8 122 3.2 0.0 0.00 0.00 0.00 36 1017.0
20260502024019 8 122 3.2 0.0 0.00 0.00 0.00 36 1017.0
20260502023520 8 122 3.2 0.0 0.00 0.00 0.00 35 1017.0
20260502023019 9 122 3.2 0.0 0.00 0.00 0.00 35 1017.0
20260502022620 10 143 3.2 0.0 0.00 0.00 0.00 34 1017.0
20260502022022 10 203 3.2 0.0 0.00 0.00 0.00 34 1017.0
20260502021520 11 203 3.2 0.0 0.00 0.00 0.00 32 1016.9
20260502021021 12 203 3.2 0.0 0.00 0.00 0.00 30 1016.9
20260502020520 12 203 1.6 0.0 0.00 0.00 0.00 29 1016.9
20260502020018 13 203 1.6 0.0 0.00 0.00 0.00 28 1017.0
20260502015518 14 203 1.6 0.0 0.00 0.00 0.00 26 1016.9
20260502015022 15 203 3.2 0.0 0.00 0.00 0.00 25 1016.9
20260502014525 15 203 4.8 0.0 0.00 0.00 0.00 25 1016.9
20260502014017 16 203 4.8 0.0 0.00 0.00 0.00 24 1017.0
20260502013516 16 203 6.4 0.0 0.00 0.00 0.00 23 1017.0
20260502013016 17 213 9.7 0.0 0.00 0.00 0.00 22 1017.1
20260502012617 17 213 11.3 0.0 0.00 0.00 0.00 21 1017.1
20260502012016 17 215 11.3 0.0 0.00 0.00 0.00 21 1017.1
20260502011516 18 196 11.3 0.0 0.00 0.00 0.00 20 1017.1
20260502011015 18 217 12.9 0.0 0.00 0.00 0.00 20 1017.1
20260502010514 18 206 14.5 0.0 0.00 0.00 0.00 19 1017.2
20260502010020 18 188 12.9 0.0 0.00 0.00 0.00 19 1017.3
20260502005514 18 215 11.3 0.0 0.00 0.00 0.00 19 1017.4
20260502005013 19 200 11.3 0.0 0.00 0.00 0.00 19 1017.3
20260502004513 19 190 12.9 0.0 0.00 0.00 0.00 19 1017.4
20260502004013 19 217 12.9 0.0 0.00 0.00 0.00 18 1017.4
20260502003513 19 241 14.5 0.0 0.00 0.00 0.00 18 1017.4
20260502003012 19 222 14.5 0.0 0.00 0.00 0.00 18 1017.5
20260502002612 19 227 16.1 0.0 0.00 0.00 0.00 18 1017.6
20260502002014 19 232 14.5 0.0 0.00 0.00 0.00 17 1017.6
20260502001512 20 239 14.5 0.0 0.00 0.00 0.00 17 1017.6
20260502001011 20 245 11.3 0.0 0.00 0.00 0.00 17 1017.6
20260502000510 20 201 11.3 0.0 0.00 0.00 0.00 17 1017.7
20260502000010 20 197 12.9 0.0 0.00 0.00 0.00 17 1017.7
20260501235509 20 227 14.5 0.0 0.00 0.00 0.00 16 1017.7
20260501235009 20 209 11.3 0.0 0.00 0.00 0.00 17 1017.7
20260501234509 20 202 8.0 0.0 0.00 0.00 0.00 17 1017.7
20260501234009 20 238 8.0 0.0 0.00 0.00 0.00 17 1017.7
20260501233509 20 169 11.3 0.0 0.00 0.00 0.00 16 1017.7
20260501233008 20 201 14.5 0.0 0.00 0.00 0.00 17 1017.9
20260501232608 20 151 16.1 0.0 0.00 0.00 0.00 18 1017.8
20260501232007 20 242 14.5 0.0 0.00 0.00 0.00 18 1017.8
20260501231506 20 222 12.9 0.0 0.00 0.00 0.00 17 1017.9
20260501231005 20 188 11.3 0.0 0.00 0.00 0.00 17 1017.9
20260501230506 20 181 11.3 0.0 0.00 0.00 0.00 18 1018.0
20260501230004 20 185 14.5 0.0 0.00 0.00 0.00 19 1018.0
20260501225504 20 203 14.5 0.0 0.00 0.00 0.00 18 1018.0
20260501225003 20 226 9.7 0.0 0.00 0.00 0.00 18 1018.1
20260501224502 20 161 6.4 0.0 0.00 0.00 0.00 17 1018.1
20260501224002 19 229 12.9 0.0 0.00 0.00 0.00 17 1018.2
20260501223501 19 210 16.1 0.0 0.00 0.00 0.00 18 1018.3
20260501223142 20 232 11.3 0.0 0.00 0.00 0.00 19 1018.3
20260501223001 20 234 11.3 0.0 0.00 0.00 0.00 18 1018.3
20260501222600 20 245 9.7 0.0 0.00 0.00 0.00 19 1018.4
20260501222100 20 195 11.3 0.0 0.00 0.00 0.00 18 1018.4
20260501221559 20 198 9.7 0.0 0.00 0.00 0.00 17 1018.5
20260501221059 20 200 8.0 0.0 0.00 0.00 0.00 19 1018.5
20260501220559 19 173 9.7 0.0 0.00 0.00 0.00 18 1018.6
20260501220057 19 108 11.3 0.0 0.00 0.00 0.00 19 1018.7
20260501215556 20 147 11.3 0.0 0.00 0.00 0.00 19 1018.8
20260501215059 19 205 8.0 0.0 0.00 0.00 0.00 20 1018.9
20260501214556 19 233 9.7 0.0 0.00 0.00 0.00 19 1018.9
20260501214054 19 190 11.3 0.0 0.00 0.00 0.00 19 1019.1
20260501213553 19 229 9.7 0.0 0.00 0.00 0.00 20 1019.1
20260501213052 19 194 8.0 0.0 0.00 0.00 0.00 19 1019.1
20260501212551 19 200 9.7 0.0 0.00 0.00 0.00 19 1019.3
20260501212053 19 146 11.3 0.0 0.00 0.00 0.00 19 1019.3
20260501211553 18 156 12.9 0.0 0.00 0.00 0.00 19 1019.4
20260501211049 18 167 9.7 0.0 0.00 0.00 0.00 21 1019.4
20260501210549 18 253 14.5 0.0 0.00 0.00 0.00 18 1019.4
20260501210048 18 249 11.3 0.0 0.00 0.00 0.00 18 1019.5
20260501205548 18 198 9.7 0.0 0.00 0.00 0.00 19 1019.5
20260501205047 18 170 14.5 0.0 0.00 0.00 0.00 19 1019.6
20260501204557 18 126 16.1 0.0 0.00 0.00 0.00 20 1019.8
20260501204045 18 184 11.3 0.0 0.00 0.00 0.00 21 1019.7
20260501203545 18 126 6.4 0.0 0.00 0.00 0.00 20 1019.8
20260501203044 18 5 11.3 0.0 0.00 0.00 0.00 21 1019.7
20260501202544 18 177 14.5 0.0 0.00 0.00 0.00 22 1019.9
20260501202042 18 193 12.9 0.0 0.00 0.00 0.00 22 1019.9
20260501201543 18 155 12.9 0.0 0.00 0.00 0.00 22 1019.9
20260501201041 18 202 9.7 0.0 0.00 0.00 0.00 22 1020.0
20260501200540 18 94 9.7 0.0 0.00 0.00 0.00 21 1020.0
20260501200040 18 82 11.3 0.0 0.00 0.00 0.00 21 1020.0
20260501195539 18 134 12.9 0.0 0.00 0.00 0.00 21 1020.1
20260501195039 18 128 14.5 0.0 0.00 0.00 0.00 22 1020.2
20260501194539 18 194 14.5 0.0 0.00 0.00 0.00 22 1020.3
20260501194039 18 136 8.0 0.0 0.00 0.00 0.00 23 1020.2
20260501193538 18 157 9.7 0.0 0.00 0.00 0.00 21 1020.2
20260501193038 17 184 12.9 0.0 0.00 0.00 0.00 22 1020.4
20260501192539 17 115 9.7 0.0 0.00 0.00 0.00 25 1020.3
20260501192041 17 91 11.3 0.0 0.00 0.00 0.00 25 1020.3
20260501191538 17 71 14.5 0.0 0.00 0.00 0.00 23 1020.3
20260501191036 17 223 12.9 0.0 0.00 0.00 0.00 23 1020.5
20260501190537 17 144 9.7 0.0 0.00 0.00 0.00 23 1020.5
20260501190036 17 117 8.0 0.0 0.00 0.00 0.00 24 1020.5
20260501185534 17 141 9.7 0.0 0.00 0.00 0.00 22 1020.6
20260501185034 17 202 16.1 0.0 0.00 0.00 0.00 23 1020.7
20260501184534 17 135 12.9 0.0 0.00 0.00 0.00 23 1020.8
20260501184034 17 191 9.7 0.0 0.00 0.00 0.00 25 1020.7
20260501183540 16 190 12.9 0.0 0.00 0.00 0.00 24 1020.7
20260501183033 17 123 14.5 0.0 0.00 0.00 0.00 25 1020.8
20260501182531 17 130 12.9 0.0 0.00 0.00 0.00 23 1020.8
20260501182030 17 159 12.9 0.0 0.00 0.00 0.00 24 1020.8
20260501181534 17 113 14.5 0.0 0.00 0.00 0.00 25 1020.9
20260501181029 16 142 14.5 0.0 0.00 0.00 0.00 24 1020.9